sat.trackr.live / text

‹ back to catalog

STARLINK-2209

NORAD 47776 · 2021-017BG

PAYLOAD ACTIVE UNKNOWN

§ Identity

Operator
Country
US
Launch date
2021-03-04
Launch site
AFETR
Launch vehicle
Mass (kg)
RCS (m²)

Purposes: comms

External: N2YO · Heavens-Above · Gunter

§ Orbital elements

Epoch: 2026-08-31T18:02:08.048256Z

Period
87.95 min
Inclination
53.1322°
Eccentricity
0.0009238
Mean motion
16.37345809 rev/d
Perigee alt
166.8 km
Apogee alt
178.9 km
Semi-major
6,551.0 km
B*
7.9989e-4
RAAN
64.1905°
Arg perigee
284.8011°
Mean anomaly
75.2011°
Rev number
30,531

§ Raw data

STARLINK-22091 47776U 21017BG  26243.75148204  .08160743  12316-4  79989-3 0  99912 47776  53.1322  64.1905 0009238 284.8011  75.2011 16.37345809305314

JSON: /api/v1/satellites/47776 · /tle

For live sub-satellite position, see the globe view (requires WebGL).

§ Visibility from observer

Set your observer location to see the next 7 days of passes ≥ 10°. The values pass through the URL so the page stays shareable.

No JS? Fill the form by hand. The geolocation button needs JavaScript.